📊 Raw Sensor Data

Showing records 39476 to 39500 of 84,946 total

ID Distance (ft) Battery V Battery A Int Temp (°F) Int Humid (%) Ext Temp (°F) Solar V RSSI SNR Time Stamp
45483 15.4 3.68 -5 53 44 55 0.00 -68 8 07/06/2025 01:30 AM
45482 15.4 3.77 -5 54 44 55 0.10 -68 8 07/06/2025 01:15 AM
45481 15.4 3.85 -5 54 44 56 0.00 -68 8 07/06/2025 01:00 AM
45480 15.3 3.85 -5 55 45 57 0.00 -67 8 07/06/2025 12:45 AM
45479 15.3 3.85 -5 55 45 58 0.00 -68 8 07/06/2025 12:30 AM
45478 15.4 3.77 -5 56 45 57 0.00 -68 8 07/06/2025 12:15 AM
45477 15.3 3.76 -5 56 45 57 0.00 -68 8 07/06/2025 12:00 AM
45476 15.3 3.77 -5 56 45 58 0.00 -69 8 07/05/2025 11:45 PM
45475 15.3 3.77 -5 57 46 58 0.00 -68 8 07/05/2025 11:30 PM
45474 15.3 3.77 -5 58 47 58 0.00 -69 8 07/05/2025 11:15 PM
45473 15.3 3.77 -5 58 47 59 0.00 -69 8 07/05/2025 11:00 PM
45472 15.3 3.77 -5 59 47 61 0.00 -68 8 07/05/2025 10:45 PM
45471 15.3 3.86 -5 60 48 61 0.00 -69 7 07/05/2025 10:30 PM
45470 15.3 3.86 -5 61 49 62 0.00 -70 8 07/05/2025 10:15 PM
45469 15.3 3.86 -5 62 50 62 0.00 -70 8 07/05/2025 10:00 PM
45468 15.3 3.86 -5 63 51 63 0.00 -69 8 07/05/2025 09:45 PM
45467 15.3 3.79 -5 65 52 65 0.00 -69 8 07/05/2025 09:30 PM
45466 15.3 3.79 -5 66 54 65 0.00 -71 8 07/05/2025 09:15 PM
45465 15.3 3.79 -5 68 56 66 0.00 -71 7 07/05/2025 09:00 PM
45464 15.3 3.86 -5 71 58 68 0.70 -71 7 07/05/2025 08:45 PM
45463 15.4 3.79 -10 77 57 71 3.20 -71 8 07/05/2025 08:30 PM
45462 15.4 3.81 0 83 55 79 4.50 -69 8 07/05/2025 08:15 PM
45461 15.4 3.88 0 87 54 80 4.60 -70 7 07/05/2025 08:00 PM
45460 15.5 3.89 6 90 53 83 4.60 -73 8 07/05/2025 07:45 PM
45459 15.5 3.89 9 93 53 86 4.60 -73 7 07/05/2025 07:30 PM